Find Starlink 31222

NORAD ID: 58828 Int'l Des: 2024-017 Owner: SPXS Country: US Constellation: starlink operational
LEOCIRCULAR

Current View

Loading 3D Globe...

About Starlink 31222

Starlink 31222 (NORAD 58828) is a starlink constellation satellite (v2 mini) launched Jan 24, 2024 by SPXS of US. It operates in LEO, CIRCULAR orbit with a mass of 730.00 kg.

About Starlink 31222

Description loading...

Upcoming Passes

Passes for default location (London). Set your location on the main map for personalized predictions.

Altitude History

Loading altitude history...

Two-Line Element Set

1 58828U 24017C 26170.07539104 .00000058 00000-0 14103-4 0 9996
2 58828 53.1607 93.0535 0001355 98.9237 261.1917 15.30196601135583
Epoch: Jun 19, 2026 • Age: 7 hours

Current Status

Altitude 480.8 km
Velocity 7.63 km/s
Sub-Earth Point 53.02°N, 139.13°E
Launch Date Jan 24, 2024
Age 2.4 years
Type internet

Technical Details

Classification Payload
Mass 730.00 kg
Dry Mass 700.00 kg
Total Mass 730.00 kg
Length 0.30 m
Diameter 4.10 m
Span 29.00 m
Shape Box + pan
Manufacturer SPXS
Bus Type Starlink V2M
Phase Status In Orbit
Owner/State SPXS/US

Most Searched